Regional Weather Roundup
Issued by NWS Newport/Morehead, NC

Current Version | Previous Version | Graphics & Text | Print | Product List | Glossary Off
Versions: 1 2 3 4 5 6 7 8 9 10 11 12 13 14 15 16 17 18 19 20 21 22 23 24 25 26 27 28 29 30 31 32 33 34 35 36 37 38 39 40 41 42 43 44 45 46 47 48 49 50

000
ASUS42 KMHX 020925
RWRMHX
WEATHER ROUNDUP FOR EASTERN NORTH CAROLINA
NATIONAL WEATHER SERVICE NEWPORT/MOREHEAD CITY NC
500 AM EDT MON MAY 02 2016

NOTE: "FAIR" INDICATES FEW OR NO CLOUDS BELOW 12,000 FEET
WITH NO SIGNIFICANT WEATHER AND/OR OBSTRUCTIONS TO VISIBILITY

NCZ015>017-031-032-045>047-102-103-021000-
NORTH COAST

CITY           SKY/WX    TMP DP  RH WIND       PRES   REMARKS
EDENTON        CLOUDY    68  68 100 S6        29.99S
ELIZABETH CITY CLOUDY    67  66  97 S9        29.99S
KITTY HAWK     CLOUDY    68  67  97 SW7       29.99S
MANTEO         NOT AVBL

$$

NCZ045>047-081-094-103-104-021000-
CENTRAL COAST

CITY           SKY/WX    TMP DP  RH WIND       PRES   REMARKS
FRISCO         CLOUDY    68  67  96 SW6       30.02S
SWANQUARTER    NOT AVBL

$$

NCZ095-097-098-100-101-021000-
SOUTHERN COAST

CITY           SKY/WX    TMP DP  RH WIND       PRES   REMARKS
BEAUFORT       CLOUDY    69  68  96 S7        30.02F
CEDAR ISLAND   NOT AVBL
JACKSONVILLE   PTCLDY    68  66  93 CALM      30.02S
PINEY ISLAND   NOT AVBL
WILMINGTON     PTCLDY    69  67  93 SW5       30.03S


$$

NCZ011>013-027>030-043-044-078>080-089-090>093-098-021000-
COASTAL PLAIN

CITY           SKY/WX    TMP DP  RH WIND       PRES   REMARKS
AHOSKIE        CLOUDY    65  64  96 CALM      29.98F
CLINTON        CLOUDY    68  68 100 S3        30.01F FOG
ELIZABETHTOWN  CLOUDY    68  68 100 CALM      30.03R FOG
GOLDSBORO      CLOUDY    70  70 100 SW9       29.98F
GREENVILLE     CLOUDY    70  68  94 SW6       30.00F
HAVELOCK       CLOUDY    69  67  93 SW8       30.03S
KENANSVILLE    CLOUDY    67  67  98 SW7       30.03S FOG
KINSTON        CLOUDY    68  67  96 SW8       30.01F
NEW BERN       CLOUDY    68  66  93 S7        30.02F
RICHLANDS      MOCLDY    65  65 100 S6        30.03S FOG
ROCKY MOUNT    CLOUDY    68  66  93 SW8       29.98S
WASHINGTON     CLOUDY    67  65  95 SW6       30.00S
WHITEVILLE     FOG       68  67  96 CALM      30.02S VSB 1/2

$$

AMZ130-135-150-152-154-156-158-170-250-252-270-ANZ085-086-088-633-658-670-021000-
MARINE OBSERVATIONS

STATION/POSITION TIME  TEMP    WIND        PRES    WAVE   SWELL
                       AIR SEA DIR/SP/G            HT/PER HT/PER
                 (UTC) (F)     (DEG/KT/KT) (MB)    (FT/S) (FT/S)
CHESAPEAKE LIGHT 0900   64     200/ 19/ 20 1015.1
64 E VA BEACH    0850   57 53  190/  6/  8 1015.3    5/10   5/10
DUCK             0900   69 66  220/  9/ 12 1015.1
2 E DUCK         0811      58                N/A     3/ 9   2/11
OREGON INLET     0900   68 67  190/  9/ 10 1015.7
13E OREGON INLT  0900      59                N/A     4/ 9   3/ 9
HATTERAS CG      0900   69 68  220/  7/ 10 1016.3
DIAMOND BUOY     0850   73 73  230/ 10/ 12 1016.6    5/ 9   3/ 9
CAPE LOOKOUT     0900   69     210/  5/  6 1016.4
BEAUFORT LAB     0900   69 67  200/  4/  5 1015.8
30 SE NEW RVR IN 0825      70                N/A     4/10   2/11
27 SE WRIGHTSVLE 0908   73 72  210/ 10/ 14 1016.8
5 SE WRIGHTSVLE  0908   69 68  220/  6/ 10 1017.3
225 S CAPE HAT   0850   73 74  150/ 12/ 14 1018.9    4/ 9   3/ 9
41 SE CHARLESTON 0850   75 74  210/  6/  6 1016.6    3/10   3/10

$$




USA.gov is the U.S. government's official web portal to all federal, state and local government web resources and services.